| time (UTC) | temp F | wind direction | speed knots | gust knots | rain 1hr in | rain 24hr in | rain mn in | humidity % | barometer mb |
| 20260507055712 | 47 | 13 | 3.5 | 5.2 | 0.00 | 0.11 | 0.00 | 82 | 1014.3 |
| 20260507055213 | 47 | 353 | 2.6 | 6.1 | 0.00 | 0.11 | 0.00 | 82 | 1014.3 |
| 20260507054938 | 47 | 358 | 4.3 | 6.1 | 0.00 | 0.11 | 0.00 | 82 | 1014.2 |
| 20260507054209 | 47 | 347 | 2.6 | 6.1 | 0.00 | 0.11 | 0.00 | 82 | 1014.3 |
| 20260507053709 | 47 | 354 | 3.5 | 6.1 | 0.00 | 0.12 | 0.00 | 82 | 1014.2 |
| 20260507053208 | 47 | 334 | 3.5 | 6.1 | 0.00 | 0.13 | 0.00 | 82 | 1014.1 |
| 20260507052708 | 47 | 358 | 2.6 | 6.1 | 0.00 | 0.13 | 0.00 | 82 | 1014.2 |
| 20260507052439 | 47 | 341 | 3.5 | 5.2 | 0.00 | 0.13 | 0.00 | 82 | 1014.1 |
| 20260507051705 | 47 | 336 | 2.6 | 5.2 | 0.00 | 0.14 | 0.00 | 82 | 1014.0 |
| 20260507051206 | 47 | 330 | 2.6 | 5.2 | 0.00 | 0.14 | 0.00 | 82 | 1014.0 |
| 20260507050706 | 47 | 324 | 3.5 | 5.2 | 0.00 | 0.15 | 0.00 | 82 | 1013.9 |
| 20260507050205 | 47 | 350 | 2.6 | 4.3 | 0.00 | 0.16 | 0.00 | 82 | 1013.8 |
| 20260507045704 | 47 | 329 | 2.6 | 5.2 | 0.00 | 0.16 | 0.00 | 82 | 1013.7 |
| 20260507045205 | 47 | 321 | 2.6 | 5.2 | 0.00 | 0.17 | 0.00 | 82 | 1013.7 |
| 20260507044705 | 47 | 319 | 2.6 | 5.2 | 0.00 | 0.17 | 0.00 | 82 | 1013.6 |
| 20260507044203 | 47 | 338 | 2.6 | 4.3 | 0.00 | 0.17 | 0.00 | 82 | 1013.5 |
| 20260507043935 | 47 | 333 | 2.6 | 4.3 | 0.00 | 0.18 | 0.00 | 82 | 1013.5 |
| 20260507043204 | 47 | 334 | 2.6 | 4.3 | 0.00 | 0.19 | 0.00 | 82 | 1013.6 |
| 20260507042935 | 47 | 333 | 1.7 | 4.3 | 0.00 | 0.19 | 0.00 | 82 | 1013.4 |
| 20260507042204 | 48 | 351 | 1.7 | 4.3 | 0.00 | 0.20 | 0.00 | 82 | 1013.3 |
| 20260507041936 | 47 | 292 | 2.6 | 4.3 | 0.00 | 0.20 | 0.00 | 82 | 1013.3 |
| 20260507041203 | 47 | 333 | 1.7 | 4.3 | 0.00 | 0.21 | 0.00 | 82 | 1013.3 |
| 20260507040704 | 47 | 331 | 2.6 | 4.3 | 0.00 | 0.21 | 0.00 | 82 | 1013.3 |
| 20260507040205 | 47 | 345 | 1.7 | 5.2 | 0.00 | 0.22 | 0.00 | 82 | 1013.2 |
| 20260507035703 | 47 | 336 | 1.7 | 5.2 | 0.00 | 0.22 | 0.00 | 83 | 1013.2 |
| 20260507035203 | 48 | 358 | 2.6 | 4.3 | 0.00 | 0.23 | 0.00 | 82 | 1013.2 |
| 20260507034935 | 48 | 358 | 2.6 | 4.3 | 0.00 | 0.24 | 0.00 | 83 | 1013.1 |
| 20260507034204 | 48 | 334 | 1.7 | 5.2 | 0.00 | 0.24 | 0.00 | 83 | 1013.0 |
| 20260507033703 | 48 | 348 | 1.7 | 5.2 | 0.00 | 0.24 | 0.00 | 83 | 1013.1 |
| 20260507033202 | 48 | 337 | 1.7 | 4.3 | 0.00 | 0.24 | 0.00 | 83 | 1013.0 |
| 20260507032702 | 48 | 321 | 0.9 | 4.3 | 0.00 | 0.25 | 0.00 | 83 | 1013.1 |
| 20260507032439 | 48 | 340 | 1.7 | 4.3 | 0.00 | 0.25 | 0.00 | 83 | 1013.0 |
| 20260507031701 | 48 | 313 | 1.7 | 5.2 | 0.00 | 0.26 | 0.00 | 83 | 1013.0 |
| 20260507031204 | 48 | 330 | 2.6 | 5.2 | 0.00 | 0.27 | 0.00 | 83 | 1013.0 |
| 20260507030703 | 48 | 338 | 1.7 | 3.5 | 0.00 | 0.27 | 0.00 | 83 | 1013.0 |
| 20260507030429 | 48 | 343 | 1.7 | 3.5 | 0.00 | 0.27 | 0.00 | 83 | 1012.9 |
| 20260507025702 | 48 | 343 | 1.7 | 3.5 | 0.00 | 0.28 | 0.00 | 83 | 1012.9 |
| 20260507025202 | 48 | 341 | 0.9 | 2.6 | 0.00 | 0.28 | 0.00 | 83 | 1012.9 |
| 20260507024704 | 47 | 329 | 0.9 | 2.6 | 0.00 | 0.28 | 0.00 | 83 | 1012.9 |
| 20260507024202 | 47 | 344 | 0.9 | 2.6 | 0.00 | 0.29 | 0.00 | 83 | 1012.9 |
| 20260507023702 | 47 | 358 | 1.7 | 2.6 | 0.00 | 0.30 | 0.00 | 83 | 1012.9 |
| 20260507023202 | 47 | 275 | 0.9 | 2.6 | 0.00 | 0.30 | 0.00 | 83 | 1012.8 |
| 20260507022702 | 47 | 307 | 0.9 | 2.6 | 0.00 | 0.31 | 0.00 | 83 | 1012.8 |
| 20260507022204 | 47 | 321 | 0.0 | 1.7 | 0.00 | 0.31 | 0.00 | 83 | 1012.7 |
| 20260507021704 | 47 | 312 | 0.9 | 1.7 | 0.00 | 0.32 | 0.00 | 83 | 1012.7 |
| 20260507020702 | 47 | 275 | 0.0 | 0.9 | 0.00 | 0.35 | 0.00 | 83 | 1012.7 |
| 20260507020202 | 47 | 275 | 0.0 | 0.9 | 0.00 | 0.35 | 0.00 | 83 | 1012.7 |
| 20260507015702 | 47 | 275 | 0.0 | 0.0 | 0.00 | 0.36 | 0.00 | 83 | 1012.6 |
| 20260507015440 | 47 | 275 | 0.0 | 0.0 | 0.00 | 0.37 | 0.00 | 83 | 1012.6 |
| 20260507014658 | 47 | 275 | 0.0 | 0.9 | 0.00 | 0.37 | 0.00 | 83 | 1012.6 |
| 20260507014157 | 47 | 275 | 0.0 | 1.7 | 0.00 | 0.38 | 0.00 | 83 | 1012.6 |
| 20260507013657 | 47 | 275 | 0.9 | 1.7 | 0.00 | 0.38 | 0.00 | 83 | 1012.7 |
| 20260507013430 | 47 | 276 | 0.0 | 0.9 | 0.00 | 0.38 | 0.00 | 83 | 1012.7 |
| 20260507012659 | 47 | 271 | 0.0 | 1.7 | 0.00 | 0.39 | 0.00 | 83 | 1012.5 |
| 20260507012156 | 47 | 271 | 0.9 | 1.7 | 0.00 | 0.39 | 0.00 | 83 | 1012.5 |
| 20260507011927 | 47 | 272 | 0.0 | 0.9 | 0.00 | 0.39 | 0.00 | 83 | 1012.3 |
| 20260507011421 | 47 | 268 | 0.0 | 0.0 | 0.00 | 0.39 | 0.00 | 83 | 1012.4 |
| 20260507010654 | 47 | 268 | 0.0 | 0.0 | 0.00 | 0.39 | 0.00 | 83 | 1012.4 |
| 20260507010154 | 47 | 268 | 0.0 | 0.0 | 0.00 | 0.39 | 0.00 | 83 | 1012.3 |
| 20260507005923 | 47 | 268 | 0.0 | 0.0 | 0.00 | 0.40 | 0.00 | 83 | 1012.4 |
| 20260507005152 | 47 | 268 | 0.0 | 0.0 | 0.00 | 0.40 | 0.00 | 83 | 1012.4 |
| 20260507004652 | 47 | 268 | 0.0 | 0.0 | 0.00 | 0.40 | 0.00 | 83 | 1012.5 |
| 20260507004152 | 47 | 268 | 0.0 | 0.0 | 0.00 | 0.41 | 0.00 | 83 | 1012.4 |
| 20260507003653 | 47 | 268 | 0.0 | 0.9 | 0.00 | 0.41 | 0.00 | 83 | 1012.5 |
| 20260507003152 | 47 | 266 | 0.0 | 0.9 | 0.00 | 0.42 | 0.00 | 83 | 1012.4 |
| 20260507002652 | 47 | 268 | 0.0 | 0.9 | 0.00 | 0.42 | 0.00 | 83 | 1012.4 |
| 20260507002152 | 47 | 268 | 0.0 | 0.9 | 0.00 | 0.43 | 0.00 | 83 | 1012.3 |
| 20260507001650 | 47 | 264 | 0.9 | 1.7 | 0.00 | 0.43 | 0.00 | 83 | 1012.3 |
| 20260507001411 | 47 | 262 | 0.9 | 1.7 | 0.00 | 0.43 | 0.00 | 83 | 1012.3 |
| 20260507000640 | 47 | 257 | 0.9 | 1.7 | 0.00 | 0.43 | 0.00 | 83 | 1012.2 |
| 20260507000141 | 47 | 257 | 0.0 | 1.7 | 0.00 | 0.00 | 0.00 | 83 | 1012.3 |
| 20260506235641 | 47 | 240 | 0.9 | 1.7 | 0.00 | 0.44 | 0.00 | 83 | 1012.2 |
| 20260506235142 | 47 | 252 | 0.9 | 1.7 | 0.00 | 0.44 | 0.00 | 83 | 1012.2 |
| 20260506234641 | 47 | 247 | 0.0 | 1.7 | 0.00 | 0.44 | 0.00 | 83 | 1012.2 |
| 20260506234141 | 47 | 203 | 0.0 | 1.7 | 0.00 | 0.45 | 0.00 | 83 | 1012.3 |
| 20260506233638 | 47 | 250 | 0.0 | 1.7 | 0.00 | 0.45 | 0.00 | 83 | 1012.2 |
| 20260506233138 | 47 | 262 | 0.9 | 1.7 | 0.00 | 0.46 | 0.00 | 83 | 1012.2 |
| 20260506232640 | 47 | 293 | 0.0 | 0.9 | 0.00 | 0.46 | 0.00 | 83 | 1012.2 |
| 20260506232137 | 47 | 293 | 0.0 | 0.9 | 0.00 | 0.46 | 0.00 | 83 | 1012.1 |
| 20260506231636 | 47 | 293 | 0.0 | 0.0 | 0.00 | 0.46 | 0.00 | 83 | 1012.1 |
| 20260506231136 | 47 | 293 | 0.0 | 0.0 | 0.00 | 0.46 | 0.00 | 83 | 1012.1 |
| 20260506230909 | 47 | 293 | 0.0 | 0.9 | 0.00 | 0.46 | 0.00 | 83 | 1012.1 |
| 20260506230135 | 47 | 293 | 0.0 | 0.9 | 0.00 | 0.47 | 0.00 | 83 | 1012.0 |
| 20260506225631 | 47 | 293 | 0.0 | 0.9 | 0.00 | 0.47 | 0.00 | 83 | 1012.0 |
| 20260506225130 | 47 | 337 | 0.0 | 0.9 | 0.00 | 0.47 | 0.00 | 83 | 1012.0 |
| 20260506224632 | 47 | 0 | 0.0 | 0.0 | 0.00 | 0.47 | 0.00 | 83 | 1012.0 |
| 20260506224131 | 47 | 0 | 0.0 | 0.0 | 0.00 | 0.48 | 0.00 | 82 | 1012.0 |
| 20260506223630 | 47 | 0 | 0.0 | 0.9 | 0.00 | 0.48 | 0.00 | 82 | 1011.9 |
| 20260506223131 | 47 | 0 | 0.0 | 2.6 | 0.00 | 0.48 | 0.00 | 82 | 1011.8 |
| 20260506222630 | 47 | 0 | 0.9 | 3.5 | 0.00 | 0.48 | 0.00 | 82 | 1011.8 |
| 20260506222131 | 47 | 358 | 1.7 | 3.5 | 0.00 | 0.48 | 0.00 | 83 | 1011.8 |
| 20260506221631 | 47 | 353 | 1.7 | 3.5 | 0.00 | 0.48 | 0.00 | 83 | 1011.8 |
| 20260506221130 | 47 | 0 | 1.7 | 3.5 | 0.00 | 0.49 | 0.00 | 83 | 1011.7 |
| 20260506220631 | 47 | 1 | 0.9 | 3.5 | 0.00 | 0.49 | 0.00 | 83 | 1011.6 |
| 20260506220131 | 47 | 0 | 1.7 | 3.5 | 0.00 | 0.49 | 0.00 | 83 | 1011.6 |
| 20260506215630 | 47 | 0 | 1.7 | 3.5 | 0.00 | 0.49 | 0.49 | 83 | 1011.7 |
| 20260506215129 | 47 | 357 | 1.7 | 3.5 | 0.00 | 0.50 | 0.49 | 83 | 1011.6 |
| 20260506214900 | 47 | 1 | 2.6 | 4.3 | 0.00 | 0.50 | 0.49 | 83 | 1011.6 |
| 20260506214129 | 47 | 355 | 2.6 | 4.3 | 0.00 | 0.50 | 0.49 | 83 | 1011.5 |
| 20260506213629 | 48 | 3 | 2.6 | 4.3 | 0.00 | 0.50 | 0.49 | 83 | 1011.4 |
| 20260506213129 | 48 | 1 | 1.7 | 4.3 | 0.00 | 0.50 | 0.49 | 83 | 1011.4 |
| 20260506212902 | 48 | 0 | 2.6 | 4.3 | 0.00 | 0.50 | 0.49 | 83 | 1011.4 |
| 20260506212130 | 48 | 0 | 2.6 | 3.5 | 0.00 | 0.50 | 0.49 | 83 | 1011.4 |
| 20260506211629 | 48 | 0 | 2.6 | 3.5 | 0.00 | 0.50 | 0.49 | 83 | 1011.4 |
| 20260506211136 | 48 | 355 | 1.7 | 5.2 | 0.00 | 0.51 | 0.49 | 83 | 1011.4 |
| 20260506210356 | 48 | 358 | 1.7 | 4.3 | 0.00 | 0.51 | 0.49 | 83 | 1011.3 |
| 20260506205625 | 48 | 358 | 1.7 | 4.3 | 0.00 | 0.51 | 0.49 | 82 | 1011.2 |
| 20260506205357 | 48 | 343 | 2.6 | 4.3 | 0.00 | 0.51 | 0.49 | 83 | 1011.2 |
| 20260506204625 | 48 | 338 | 3.5 | 5.2 | 0.00 | 0.51 | 0.49 | 83 | 1011.1 |
| 20260506204124 | 48 | 0 | 3.5 | 5.2 | 0.00 | 0.51 | 0.49 | 83 | 1011.1 |
| 20260506203626 | 48 | 341 | 3.5 | 5.2 | 0.00 | 0.51 | 0.49 | 83 | 1011.2 |
| 20260506203123 | 48 | 0 | 3.5 | 6.1 | 0.00 | 0.51 | 0.49 | 83 | 1011.2 |
| 20260506202623 | 48 | 354 | 3.5 | 6.1 | 0.00 | 0.52 | 0.49 | 83 | 1011.2 |
| 20260506202123 | 48 | 302 | 3.5 | 5.2 | 0.00 | 0.52 | 0.49 | 83 | 1011.2 |
| 20260506201624 | 48 | 334 | 2.6 | 4.3 | 0.00 | 0.52 | 0.49 | 83 | 1011.1 |
| 20260506201120 | 48 | 357 | 2.6 | 4.3 | 0.00 | 0.52 | 0.49 | 83 | 1011.2 |
| 20260506200618 | 48 | 338 | 2.6 | 4.3 | 0.00 | 0.52 | 0.49 | 83 | 1011.2 |
| 20260506200353 | 48 | 353 | 1.7 | 3.5 | 0.00 | 0.52 | 0.49 | 83 | 1011.2 |
| 20260506195619 | 48 | 347 | 0.9 | 3.5 | 0.00 | 0.53 | 0.49 | 83 | 1011.0 |
| 20260506195121 | 48 | 334 | 1.7 | 3.5 | 0.00 | 0.53 | 0.49 | 83 | 1011.0 |
| 20260506194848 | 48 | 354 | 2.6 | 3.5 | 0.00 | 0.53 | 0.49 | 83 | 1011.0 |
| 20260506194353 | 48 | 350 | 2.6 | 3.5 | 0.00 | 0.53 | 0.49 | 83 | 1010.9 |
| 20260506193616 | 48 | 345 | 1.7 | 3.5 | 0.00 | 0.53 | 0.49 | 83 | 1010.8 |
| 20260506193113 | 48 | 353 | 1.7 | 3.5 | 0.00 | 0.53 | 0.49 | 83 | 1010.8 |
| 20260506192613 | 48 | 355 | 1.7 | 5.2 | 0.00 | 0.53 | 0.49 | 83 | 1010.8 |
| 20260506192118 | 48 | 20 | 3.5 | 5.2 | 0.00 | 0.53 | 0.49 | 83 | 1010.7 |
| 20260506191609 | 48 | 4 | 3.5 | 5.2 | 0.00 | 0.53 | 0.49 | 83 | 1010.6 |
| 20260506191110 | 48 | 0 | 3.5 | 6.1 | 0.00 | 0.53 | 0.49 | 83 | 1010.7 |
| 20260506190841 | 48 | 357 | 4.3 | 6.1 | 0.00 | 0.53 | 0.49 | 83 | 1010.6 |
| 20260506190112 | 49 | 341 | 3.5 | 5.2 | 0.00 | 0.53 | 0.49 | 83 | 1010.4 |
| 20260506185604 | 49 | 336 | 1.7 | 4.3 | 0.00 | 0.53 | 0.49 | 83 | 1010.5 |
| 20260506185339 | 48 | 4 | 1.7 | 4.3 | 0.00 | 0.53 | 0.49 | 82 | 1010.5 |
| 20260506184841 | 48 | 336 | 0.9 | 3.5 | 0.00 | 0.53 | 0.49 | 83 | 1010.4 |
| 20260506184103 | 48 | 13 | 1.7 | 3.5 | 0.00 | 0.53 | 0.49 | 83 | 1010.4 |
| 20260506183830 | 48 | 358 | 0.9 | 3.5 | 0.00 | 0.53 | 0.49 | 82 | 1010.3 |
| 20260506183057 | 48 | 24 | 0.9 | 2.6 | 0.00 | 0.53 | 0.49 | 82 | 1010.2 |
| 20260506182555 | 48 | 7 | 1.7 | 4.3 | 0.00 | 0.53 | 0.49 | 82 | 1010.3 |
| 20260506182053 | 48 | 21 | 2.6 | 6.1 | 0.00 | 0.53 | 0.49 | 82 | 1010.2 |
| 20260506181825 | 48 | 30 | 4.3 | 7.8 | 0.00 | 0.53 | 0.49 | 82 | 1010.1 |
| 20260506181054 | 49 | 18 | 4.3 | 7.8 | 0.00 | 0.53 | 0.49 | 82 | 1010.0 |
| 20260506180554 | 49 | 319 | 2.6 | 5.2 | 0.00 | 0.53 | 0.49 | 82 | 1010.0 |
| 20260506180058 | 49 | 326 | 2.6 | 5.2 | 0.00 | 0.53 | 0.49 | 81 | 1010.0 |
| 20260506175554 | 49 | 351 | 3.5 | 8.7 | 0.00 | 0.53 | 0.49 | 81 | 1009.9 |
| 20260506175048 | 49 | 330 | 4.3 | 8.7 | 0.00 | 0.53 | 0.49 | 81 | 1009.9 |
| 20260506174548 | 49 | 11 | 5.2 | 7.8 | 0.00 | 0.53 | 0.49 | 81 | 1009.9 |
| 20260506174047 | 49 | 0 | 4.3 | 7.8 | 0.00 | 0.53 | 0.49 | 81 | 1009.7 |
| 20260506173546 | 49 | 10 | 4.3 | 9.6 | 0.00 | 0.53 | 0.49 | 81 | 1009.7 |
| 20260506173047 | 49 | 0 | 5.2 | 9.6 | 0.00 | 0.53 | 0.49 | 81 | 1009.7 |
| 20260506172548 | 49 | 23 | 5.2 | 9.6 | 0.00 | 0.53 | 0.49 | 81 | 1009.5 |
| 20260506172043 | 49 | 354 | 3.5 | 10.4 | 0.00 | 0.53 | 0.49 | 81 | 1009.5 |
| 20260506171544 | 49 | 41 | 4.3 | 8.7 | 0.00 | 0.53 | 0.49 | 81 | 1009.4 |
| 20260506171042 | 49 | 355 | 1.7 | 5.2 | 0.00 | 0.53 | 0.49 | 81 | 1009.4 |
| 20260506170542 | 49 | 343 | 2.6 | 6.1 | 0.00 | 0.53 | 0.49 | 81 | 1009.3 |
| 20260506170043 | 49 | 357 | 3.5 | 6.1 | 0.00 | 0.53 | 0.49 | 81 | 1009.4 |
| 20260506165540 | 49 | 1 | 2.6 | 6.1 | 0.00 | 0.53 | 0.49 | 81 | 1009.5 |
| 20260506165041 | 49 | 47 | 3.5 | 8.7 | 0.00 | 0.53 | 0.49 | 81 | 1009.4 |
| 20260506164539 | 49 | 11 | 5.2 | 8.7 | 0.00 | 0.53 | 0.49 | 81 | 1009.3 |
| 20260506164039 | 49 | 1 | 4.3 | 8.7 | 0.00 | 0.53 | 0.49 | 81 | 1009.3 |
| 20260506163537 | 49 | 347 | 4.3 | 8.7 | 0.00 | 0.53 | 0.49 | 81 | 1009.2 |
| 20260506163036 | 49 | 27 | 5.2 | 8.7 | 0.00 | 0.53 | 0.49 | 81 | 1009.3 |
| 20260506162536 | 49 | 14 | 4.3 | 10.4 | 0.00 | 0.53 | 0.49 | 81 | 1009.2 |
| 20260506162043 | 49 | 341 | 4.3 | 10.4 | 0.00 | 0.53 | 0.49 | 81 | 1009.2 |
| 20260506161536 | 49 | 18 | 4.3 | 9.6 | 0.00 | 0.53 | 0.49 | 81 | 1009.3 |
| 20260506161313 | 49 | 354 | 5.2 | 9.6 | 0.00 | 0.53 | 0.49 | 82 | 1009.2 |
| 20260506160536 | 49 | 338 | 2.6 | 5.2 | 0.00 | 0.53 | 0.49 | 82 | 1009.2 |
| 20260506160043 | 49 | 353 | 2.6 | 7.8 | 0.00 | 0.53 | 0.49 | 82 | 1009.2 |
| 20260506155533 | 49 | 4 | 3.5 | 8.7 | 0.00 | 0.53 | 0.49 | 82 | 1009.2 |
| 20260506155034 | 49 | 48 | 3.5 | 9.6 | 0.00 | 0.53 | 0.49 | 82 | 1009.2 |
| 20260506154533 | 49 | 353 | 5.2 | 9.6 | 0.00 | 0.53 | 0.49 | 82 | 1009.1 |
| 20260506154032 | 49 | 32 | 4.3 | 9.6 | 0.00 | 0.53 | 0.49 | 83 | 1009.2 |
| 20260506153532 | 49 | 23 | 6.1 | 9.6 | 0.00 | 0.53 | 0.49 | 83 | 1009.0 |
| 20260506153030 | 49 | 4 | 2.6 | 8.7 | 0.00 | 0.53 | 0.49 | 83 | 1009.1 |
| 20260506152530 | 49 | 355 | 5.2 | 8.7 | 0.00 | 0.53 | 0.49 | 83 | 1009.1 |
| 20260506152300 | 49 | 32 | 5.2 | 8.7 | 0.00 | 0.53 | 0.49 | 83 | 1009.2 |
| 20260506151523 | 49 | 0 | 3.5 | 8.7 | 0.00 | 0.53 | 0.49 | 83 | 1009.1 |
| 20260506151023 | 49 | 358 | 4.3 | 8.7 | 0.00 | 0.53 | 0.49 | 83 | 1009.0 |
| 20260506150523 | 49 | 357 | 5.2 | 8.7 | 0.00 | 0.53 | 0.49 | 83 | 1009.0 |
| 20260506150304 | 49 | 324 | 5.2 | 7.8 | 0.00 | 0.53 | 0.49 | 83 | 1009.0 |
| 20260506145522 | 49 | 323 | 5.2 | 9.6 | 0.00 | 0.53 | 0.49 | 83 | 1009.1 |
| 20260506145019 | 49 | 330 | 5.2 | 9.6 | 0.00 | 0.53 | 0.49 | 83 | 1009.0 |
| 20260506144521 | 49 | 358 | 3.5 | 7.8 | 0.00 | 0.53 | 0.49 | 83 | 1008.9 |
| 20260506144020 | 49 | 344 | 4.3 | 8.7 | 0.00 | 0.53 | 0.49 | 83 | 1008.9 |
| 20260506143521 | 49 | 343 | 5.2 | 9.6 | 0.00 | 0.53 | 0.49 | 83 | 1008.9 |
| 20260506143019 | 49 | 329 | 5.2 | 10.4 | 0.00 | 0.53 | 0.49 | 83 | 1008.9 |
| 20260506142752 | 49 | 336 | 5.2 | 11.3 | 0.00 | 0.53 | 0.49 | 83 | 1009.0 |
| 20260506142019 | 49 | 0 | 5.2 | 11.3 | 0.00 | 0.53 | 0.49 | 84 | 1008.9 |
| 20260506141518 | 49 | 351 | 5.2 | 9.6 | 0.00 | 0.53 | 0.49 | 84 | 1008.8 |
| 20260506141018 | 49 | 350 | 6.1 | 9.6 | 0.00 | 0.53 | 0.49 | 84 | 1008.8 |
| 20260506140519 | 49 | 336 | 3.5 | 7.8 | 0.00 | 0.53 | 0.49 | 85 | 1008.8 |
| 20260506140021 | 49 | 3 | 4.3 | 8.7 | 0.00 | 0.53 | 0.49 | 85 | 1008.9 |
| 20260506135019 | 49 | 1 | 3.5 | 5.2 | 0.00 | 0.53 | 0.49 | 85 | 1008.9 |
| 20260506134518 | 49 | 6 | 4.3 | 7.8 | 0.00 | 0.53 | 0.49 | 85 | 1008.9 |
| 20260506134017 | 49 | 351 | 4.3 | 8.7 | 0.00 | 0.53 | 0.49 | 85 | 1008.8 |
| 20260506133517 | 49 | 345 | 4.3 | 8.7 | 0.00 | 0.53 | 0.49 | 85 | 1008.8 |
| 20260506133013 | 49 | 296 | 3.5 | 8.7 | 0.00 | 0.53 | 0.49 | 86 | 1008.8 |
| 20260506132747 | 49 | 353 | 5.2 | 9.6 | 0.01 | 0.53 | 0.49 | 86 | 1008.7 |
| 20260506132019 | 49 | 0 | 4.3 | 10.4 | 0.01 | 0.53 | 0.49 | 86 | 1008.8 |
| 20260506131515 | 49 | 317 | 6.1 | 10.4 | 0.01 | 0.53 | 0.49 | 86 | 1008.8 |
| 20260506131015 | 49 | 350 | 6.1 | 9.6 | 0.01 | 0.53 | 0.49 | 86 | 1008.8 |
| 20260506130514 | 49 | 344 | 5.2 | 8.7 | 0.01 | 0.53 | 0.49 | 86 | 1008.6 |
| 20260506130016 | 49 | 344 | 4.3 | 8.7 | 0.01 | 0.52 | 0.49 | 86 | 1008.6 |
| 20260506125512 | 49 | 320 | 4.3 | 10.4 | 0.01 | 0.52 | 0.49 | 86 | 1008.6 |
| 20260506125012 | 48 | 0 | 4.3 | 12.2 | 0.01 | 0.52 | 0.49 | 87 | 1008.6 |
| 20260506124515 | 48 | 357 | 7.8 | 12.2 | 0.01 | 0.52 | 0.49 | 86 | 1008.5 |
| 20260506124015 | 48 | 330 | 6.1 | 8.7 | 0.01 | 0.52 | 0.49 | 86 | 1008.6 |
| 20260506123514 | 48 | 0 | 5.2 | 8.7 | 0.01 | 0.52 | 0.49 | 86 | 1008.6 |
| 20260506123014 | 48 | 0 | 7.0 | 9.6 | 0.01 | 0.52 | 0.49 | 86 | 1008.6 |
| 20260506122506 | 48 | 20 | 4.3 | 9.6 | 0.00 | 0.52 | 0.48 | 86 | 1008.4 |
| 20260506122005 | 49 | 358 | 3.5 | 8.7 | 0.01 | 0.52 | 0.48 | 87 | 1008.4 |
| 20260506121505 | 48 | 343 | 5.2 | 10.4 | 0.01 | 0.52 | 0.48 | 87 | 1008.4 |
| 20260506121006 | 49 | 14 | 3.5 | 13.0 | 0.01 | 0.52 | 0.48 | 87 | 1008.3 |
| 20260506120517 | 48 | 0 | 7.0 | 13.0 | 0.01 | 0.52 | 0.48 | 87 | 1008.3 |
| 20260506120007 | 49 | 331 | 5.2 | 10.4 | 0.01 | 0.51 | 0.48 | 87 | 1008.3 |
| 20260506115504 | 48 | 0 | 6.1 | 12.2 | 0.01 | 0.51 | 0.48 | 87 | 1008.2 |
| 20260506115006 | 49 | 340 | 7.8 | 12.2 | 0.02 | 0.51 | 0.48 | 87 | 1008.2 |
| 20260506114502 | 48 | 357 | 6.1 | 13.0 | 0.02 | 0.51 | 0.48 | 87 | 1008.3 |
| 20260506114001 | 48 | 353 | 7.8 | 13.0 | 0.02 | 0.51 | 0.48 | 87 | 1008.2 |
| 20260506113502 | 48 | 0 | 7.0 | 12.2 | 0.02 | 0.51 | 0.48 | 88 | 1008.1 |
| 20260506112959 | 48 | 341 | 7.8 | 12.2 | 0.02 | 0.51 | 0.48 | 88 | 1008.1 |
| 20260506112459 | 48 | 0 | 6.1 | 12.2 | 0.02 | 0.51 | 0.48 | 88 | 1008.0 |
| 20260506112002 | 48 | 4 | 6.1 | 10.4 | 0.02 | 0.51 | 0.47 | 88 | 1008.1 |
| 20260506111459 | 48 | 14 | 6.1 | 10.4 | 0.02 | 0.51 | 0.47 | 88 | 1008.0 |
| 20260506110958 | 48 | 0 | 4.3 | 11.3 | 0.02 | 0.51 | 0.47 | 88 | 1008.0 |
| 20260506110459 | 48 | 345 | 7.0 | 11.3 | 0.02 | 0.51 | 0.47 | 88 | 1008.0 |
| 20260506105456 | 48 | 355 | 7.0 | 12.2 | 0.02 | 0.50 | 0.47 | 88 | 1008.0 |
| 20260506104955 | 48 | 345 | 7.8 | 12.2 | 0.02 | 0.50 | 0.46 | 88 | 1008.0 |
| 20260506104456 | 49 | 344 | 6.1 | 11.3 | 0.02 | 0.50 | 0.46 | 88 | 1007.9 |
| 20260506104229 | 49 | 348 | 6.1 | 11.3 | 0.02 | 0.50 | 0.46 | 88 | 1007.9 |
| 20260506103455 | 49 | 350 | 6.1 | 10.4 | 0.02 | 0.50 | 0.46 | 88 | 1007.8 |
| 20260506102953 | 49 | 329 | 5.2 | 9.6 | 0.02 | 0.50 | 0.46 | 88 | 1007.8 |
| 20260506102454 | 49 | 348 | 5.2 | 9.6 | 0.02 | 0.50 | 0.46 | 88 | 1007.8 |
| 20260506101953 | 49 | 0 | 5.2 | 8.7 | 0.02 | 0.50 | 0.46 | 88 | 1007.7 |
| 20260506101452 | 49 | 354 | 6.1 | 11.3 | 0.02 | 0.50 | 0.46 | 88 | 1007.7 |
| 20260506100950 | 49 | 327 | 6.1 | 11.3 | 0.02 | 0.50 | 0.46 | 88 | 1007.7 |
| 20260506100450 | 49 | 358 | 5.2 | 9.6 | 0.02 | 0.50 | 0.46 | 88 | 1007.7 |
| 20260506095950 | 50 | 353 | 5.2 | 8.7 | 0.02 | 0.47 | 0.46 | 88 | 1007.5 |
| 20260506095724 | 49 | 0 | 5.2 | 8.7 | 0.02 | 0.47 | 0.45 | 88 | 1007.5 |
| 20260506094950 | 49 | 330 | 4.3 | 7.8 | 0.02 | 0.47 | 0.45 | 88 | 1007.5 |
| 20260506094447 | 49 | 351 | 3.5 | 7.8 | 0.02 | 0.47 | 0.45 | 88 | 1007.4 |
| 20260506093946 | 49 | 337 | 5.2 | 7.8 | 0.02 | 0.47 | 0.45 | 88 | 1007.4 |
| 20260506093718 | 50 | 337 | 4.3 | 7.8 | 0.02 | 0.47 | 0.44 | 88 | 1007.4 |
| 20260506092944 | 50 | 357 | 5.2 | 7.8 | 0.02 | 0.47 | 0.44 | 88 | 1007.4 |
| 20260506092445 | 49 | 6 | 3.5 | 7.8 | 0.02 | 0.47 | 0.44 | 88 | 1007.4 |
| 20260506091944 | 49 | 344 | 5.2 | 9.6 | 0.02 | 0.47 | 0.44 | 88 | 1007.3 |
| 20260506091442 | 49 | 351 | 4.3 | 9.6 | 0.02 | 0.47 | 0.44 | 88 | 1007.3 |
| 20260506090942 | 49 | 331 | 4.3 | 7.8 | 0.02 | 0.47 | 0.44 | 88 | 1007.3 |
| 20260506090440 | 49 | 10 | 4.3 | 7.8 | 0.01 | 0.47 | 0.43 | 88 | 1007.2 |
| 20260506085941 | 49 | 355 | 5.2 | 8.7 | 0.02 | 0.46 | 0.43 | 88 | 1007.1 |
| 20260506085449 | 49 | 347 | 5.2 | 8.7 | 0.02 | 0.46 | 0.43 | 88 | 1007.1 |
| 20260506084714 | 49 | 353 | 4.3 | 6.1 | 0.02 | 0.46 | 0.43 | 88 | 1007.0 |
| 20260506083940 | 49 | 334 | 4.3 | 9.6 | 0.02 | 0.46 | 0.43 | 89 | 1007.0 |
| 20260506083440 | 49 | 0 | 5.2 | 9.6 | 0.02 | 0.46 | 0.43 | 88 | 1007.0 |
| 20260506082940 | 49 | 327 | 4.3 | 8.7 | 0.02 | 0.46 | 0.43 | 89 | 1006.9 |
| 20260506082709 | 49 | 353 | 6.1 | 8.7 | 0.02 | 0.46 | 0.43 | 88 | 1006.9 |
| 20260506081934 | 49 | 347 | 4.3 | 6.1 | 0.02 | 0.46 | 0.43 | 88 | 1006.9 |
| 20260506081708 | 49 | 344 | 4.3 | 7.8 | 0.02 | 0.46 | 0.43 | 89 | 1006.8 |
| 20260506080935 | 49 | 354 | 5.2 | 7.8 | 0.02 | 0.46 | 0.43 | 89 | 1006.8 |
| 20260506080434 | 49 | 24 | 5.2 | 7.8 | 0.02 | 0.46 | 0.42 | 89 | 1006.8 |
| 20260506073432 | 49 | 336 | 6.1 | 11.3 | 0.02 | 0.44 | 0.41 | 88 | 1006.7 |
| 20260506072934 | 49 | 0 | 7.8 | 11.3 | 0.02 | 0.44 | 0.41 | 89 | 1006.7 |
| 20260506072432 | 49 | 358 | 3.5 | 8.7 | 0.02 | 0.44 | 0.41 | 88 | 1006.6 |
| 20260506071933 | 49 | 0 | 5.2 | 10.4 | 0.02 | 0.44 | 0.40 | 88 | 1006.7 |
| 20260506070933 | 49 | 35 | 5.2 | 8.7 | 0.02 | 0.44 | 0.40 | 88 | 1006.7 |
| 20260506070431 | 49 | 0 | 4.3 | 9.6 | 0.02 | 0.44 | 0.40 | 89 | 1006.6 |
| 20260506061931 | 49 | 0 | 5.2 | 8.7 | 0.03 | 0.42 | 0.39 | 89 | 1006.4 |
| 20260506061430 | 49 | 347 | 5.2 | 9.6 | 0.04 | 0.42 | 0.39 | 89 | 1006.4 |
| 20260506061205 | 49 | 8 | 7.0 | 9.6 | 0.05 | 0.42 | 0.39 | 89 | 1006.4 |
| 20260506060431 | 49 | 0 | 5.2 | 8.7 | 0.04 | 0.42 | 0.38 | 89 | 1006.3 |